Flag for India Weather past 2 weeks in Vellore, Tamil Nadu, India

Now
88 °F

Passing clouds.


Feels Like: 105 °F
Forecast: 76 / 100 °F
Wind: 10 mph from Southwest

Location: Madras / Minambakkam

Current Time: May 23, 2015 at 1:18:39 AM

Latest Report: May 23, 2015 at 12:40 AM


Visibility: 4 mi

Pressure: 29.65 "Hg

Humidity: 79%

Dew point: 81 °F

Location of VelloreLocation

Historic Weather in Vellore — Graph

°F

Vellore temperature yesterday

Maximum temperature yesterday: 102 °F (at 12:40 PM)
Minimum temperature yesterday: 86 °F (at 3:40 AM)
Average temperature yesterday: 92 °F

Past Weeks' High & Low Weather Summary

 TemperatureHumidityPressure
High102 °F (May 20, 2:10 PM)94% (May 14, 2:10 AM)29.83 "Hg (May 14, 2:10 AM)
Low79 °F (May 16, 10:10 AM)40% (May 20, 2:10 PM)29.56 "Hg (May 21, 3:10 PM)
Average88 °F74%29.70 "Hg
* Reported May 7 11:40 PM — May 23 12:10 AM, Vellore, Weather by CustomWeather, © 2015

Note: Actual official high and low records may vary slightly from our data, if they occured in-between our weather recording intervals... More about our weather records

Advertising

Vellore weather history for previous 24 hours

 ConditionsComfort  
Time TempWeatherWind HumidityBarometerVisibility
12:10 AM
Sat, May 23
88 °FPassing clouds.12 mph79%29.65 "Hg4 mi
11:40 PM
Fri, May 22
88 °FPassing clouds.9 mph79%29.68 "Hg4 mi
11:10 PM90 °FPassing clouds.9 mph75%29.68 "Hg4 mi
10:40 PM90 °FPassing clouds.8 mph75%29.68 "Hg4 mi
10:10 PM90 °FPassing clouds.9 mph71%29.68 "Hg4 mi
9:40 PM91 °FPassing clouds.10 mph67%29.68 "Hg4 mi
9:10 PM91 °FPassing clouds.12 mph67%29.68 "Hg4 mi
8:40 PM91 °FPassing clouds.8 mph67%29.65 "Hg4 mi
8:10 PM91 °FPassing clouds.9 mph67%29.65 "Hg4 mi
7:40 PM91 °FPassing clouds.12 mph67%29.62 "Hg4 mi
7:10 PM91 °FPassing clouds.13 mph67%29.62 "Hg4 mi
6:40 PM91 °FScattered clouds.12 mph67%29.62 "Hg4 mi
6:10 PM95 °FScattered clouds.9 mph60%29.59 "Hg4 mi
5:40 PM95 °FScattered clouds.9 mph60%29.59 "Hg4 mi
5:10 PM97 °FScattered clouds.10 mph60%29.56 "Hg4 mi
4:40 PM100 °FScattered clouds.9 mph47%29.56 "Hg4 mi
4:10 PM100 °FScattered clouds.10 mph47%29.56 "Hg5 mi
3:40 PM100 °FScattered clouds.12 mph47%29.56 "Hg5 mi
3:10 PM102 °FScattered clouds.14 mph45%29.59 "Hg5 mi
2:40 PM102 °FScattered clouds.10 mph45%29.59 "Hg5 mi
2:10 PM102 °FScattered clouds.10 mph45%29.59 "Hg5 mi
1:40 PM102 °FScattered clouds.9 mph45%29.62 "Hg5 mi
1:10 PM102 °FScattered clouds.14 mph45%29.62 "Hg5 mi
12:40 PM102 °FPassing clouds.14 mph45%29.65 "Hg5 mi
12:10 PM100 °FPassing clouds.9 mph47%29.68 "Hg5 mi
11:40 AM99 °FPassing clouds.9 mph50%29.68 "Hg5 mi
11:10 AM97 °FPassing clouds.12 mph56%29.71 "Hg5 mi
10:40 AM95 °FPassing clouds.12 mph60%29.71 "Hg5 mi
10:10 AM93 °FPassing clouds.14 mph63%29.71 "Hg5 mi
9:40 AM93 °FPassing clouds.12 mph63%29.71 "Hg4 mi
9:10 AM91 °FPassing clouds.14 mph67%29.74 "Hg4 mi
8:40 AM90 °FPassing clouds.9 mph71%29.74 "Hg4 mi
8:10 AM88 °FPassing clouds.12 mph75%29.71 "Hg4 mi
7:40 AM88 °FPassing clouds.16 mph75%29.71 "Hg4 mi
7:10 AM86 °FPassing clouds.12 mph79%29.71 "Hg4 mi
6:40 AM86 °FPassing clouds.14 mph79%29.68 "Hg4 mi
6:10 AM86 °FPassing clouds.9 mph79%29.68 "Hg4 mi
5:40 AM86 °FPassing clouds.14 mph79%29.68 "Hg4 mi
5:10 AM86 °FPassing clouds.12 mph79%29.65 "Hg4 mi
4:40 AM86 °FPassing clouds.12 mph79%29.65 "Hg4 mi
4:10 AM86 °FPassing clouds.14 mph79%29.65 "Hg4 mi
3:40 AM86 °FPassing clouds.12 mph79%29.65 "Hg4 mi
3:10 AM88 °FPassing clouds.14 mph75%29.65 "Hg4 mi
2:40 AM88 °FPassing clouds.14 mph75%29.65 "Hg4 mi
2:10 AM88 °FPassing clouds.12 mph75%29.65 "Hg4 mi
1:40 AM88 °FPassing clouds.13 mph75%29.65 "Hg4 mi
1:10 AM88 °FPassing clouds.10 mph79%29.68 "Hg4 mi
Weather by CustomWeather, © 2015

See weather overviewHow to use our weather pages